星链-4474 (STARLINK-4474 )

导读 | 豆包AI

STARLINK-4474是美国SpaceX公司星链(Starlink)星座中的一颗低轨通信卫星,于2022年8月19日发射升空。作为星链全球卫星互联网项目的组成部分,它运行在近地轨道,依托星座组网,旨在为全球偏远地区提供低延迟、高速宽带互联网服务,采用霍尔推进器,具备自主避撞能力,寿命末期会主动离轨焚毁。

Basic Information
目录编号:
53547
目录名称:
STARLINK-4474
国际标识:
2022-101W
轨道中心:
EARTH
卫星名称:
星链-4474
卫星全名:
星链-4474 (STARLINK-4474 )
卫星状态:
在轨 (已飞行1350 天)
发射日期:
2022-08-19 UTC
国别 :
美国 (US)
星等 :
--
Orbit Information
数据来源 国际轨道数据 AOE轨道数据
星历时间 2026-04-30T13:26:46+0800
14小时前
查看轨道信息
2026-04-30T08:00:00+0800
19小时前
查看轨道信息
半长轴 6917.888km 6917.889km
偏心率 0.0001173 0.0001431
轨道倾角 53.217° 53.220°
近地点辐角 89.015° 26.947°
升交点赤经 192.760° 193.783°
平近点角 271.098° 179.885°
近地点 538.939km 538.762km
远地点 540.563km 540.742km
周期 95.438分钟 95.438分钟
每日圈数 15.088378 15.088375
Detailed Information
固有亮度:
5
最大亮度:
2.5
卫星平台:
Starlink v1.5
覆盖范围:
全球
运营商:
太空探索技术公司
运营商所在国:
美国
制造商(研发单位):
太空探索技术公司
制造商所在国:
美国
使用方式:
暂无
Satellite Introduction
星链(Starlink)计划是由太空探索技术公司(SpaceX)提出的一个巨型低轨卫星互联网星座项目,计划在2019年至2024年间在太空搭建由约1.2万颗卫星组成的“星链”网络,其中1584颗将部署在地球上空550千米处的近地轨道,并从2020年开始工作。该卫星仍在工作。
2D Orbit Map
3D Orbit Map
Orbit Altitude Analysis Chart
Orbit Inclination Analysis Chart
Orbit Comprehensive Analysis Chart
View Comprehensive Chart